TimeEDT,TemperatureF,Dew PointF,Humidity,Sea Level PressureIn,VisibilityMPH,Wind Direction,Wind SpeedMPH,Gust SpeedMPH,PrecipitationIn,Events,Conditions,WindDirDegrees,DateUTC
12:15 AM,48.2,44.6,87,30.13,10.0,East,4.6,-,N/A,,Clear,100,2013-06-20 04:15:00
12:35 AM,48.2,46.4,93,30.13,10.0,East,4.6,-,N/A,,Clear,100,2013-06-20 04:35:00
12:55 AM,50.0,46.4,87,30.13,10.0,East,4.6,-,N/A,,Clear,100,2013-06-20 04:55:00
1:15 AM,50.0,46.4,87,30.12,10.0,ESE,3.5,-,N/A,,Clear,110,2013-06-20 05:15:00
1:35 AM,48.2,44.6,87,30.12,10.0,East,4.6,-,N/A,,Clear,100,2013-06-20 05:35:00
1:55 AM,48.2,46.4,93,30.12,10.0,ESE,4.6,-,N/A,,Clear,110,2013-06-20 05:55:00
2:15 AM,48.2,46.4,93,30.12,10.0,East,5.8,-,N/A,,Clear,100,2013-06-20 06:15:00
2:35 AM,48.2,46.4,93,30.12,10.0,Calm,Calm,-,N/A,,Clear,0,2013-06-20 06:35:00
2:55 AM,48.2,44.6,87,30.13,10.0,Calm,Calm,-,N/A,,Clear,0,2013-06-20 06:55:00
3:15 AM,46.4,42.8,87,30.13,10.0,Calm,Calm,-,N/A,,Clear,0,2013-06-20 07:15:00
3:35 AM,44.6,42.8,93,30.13,10.0,Calm,Calm,-,N/A,,Clear,0,2013-06-20 07:35:00
3:55 AM,44.6,42.8,93,30.13,1.2,ESE,3.5,-,N/A,,Clear,110,2013-06-20 07:55:00
4:15 AM,46.4,42.8,87,30.14,10.0,Calm,Calm,-,N/A,,Clear,0,2013-06-20 08:15:00
4:35 AM,44.6,42.8,93,30.14,10.0,East,4.6,-,N/A,,Clear,100,2013-06-20 08:35:00
4:55 AM,46.4,44.6,93,30.14,10.0,East,5.8,-,N/A,,Clear,100,2013-06-20 08:55:00
5:15 AM,46.4,42.8,87,30.14,10.0,East,5.8,-,N/A,,Clear,100,2013-06-20 09:15:00
5:35 AM,46.4,44.6,93,30.14,10.0,ESE,4.6,-,N/A,,Clear,110,2013-06-20 09:35:00
5:55 AM,46.4,42.8,87,30.15,10.0,ESE,3.5,-,N/A,,Clear,110,2013-06-20 09:55:00
6:15 AM,44.6,42.8,93,30.16,10.0,Calm,Calm,-,N/A,,Clear,0,2013-06-20 10:15:00
6:35 AM,44.6,42.8,93,30.16,10.0,ESE,4.6,-,N/A,,Clear,110,2013-06-20 10:35:00
6:55 AM,46.4,44.6,93,30.16,10.0,ESE,4.6,-,N/A,,Clear,110,2013-06-20 10:55:00
7:15 AM,48.2,44.6,87,30.17,10.0,East,3.5,-,N/A,,Clear,100,2013-06-20 11:15:00
7:35 AM,48.2,46.4,93,30.17,10.0,East,4.6,-,N/A,,Clear,90,2013-06-20 11:35:00
7:55 AM,51.8,46.4,82,30.18,10.0,East,3.5,-,N/A,,Clear,90,2013-06-20 11:55:00
8:15 AM,53.6,48.2,82,30.18,10.0,East,3.5,-,N/A,,Clear,90,2013-06-20 12:15:00
8:35 AM,55.4,48.2,77,30.18,10.0,Calm,Calm,-,N/A,,Clear,0,2013-06-20 12:35:00
8:55 AM,59.0,50.0,72,30.19,10.0,Calm,Calm,-,N/A,,Clear,0,2013-06-20 12:55:00
9:15 AM,62.6,50.0,63,30.18,10.0,SSE,5.8,-,N/A,,Clear,160,2013-06-20 13:15:00
9:35 AM,64.4,48.2,56,30.18,10.0,SSE,3.5,-,N/A,,Clear,160,2013-06-20 13:35:00
9:55 AM,66.2,48.2,52,30.18,10.0,Calm,Calm,-,N/A,,Clear,0,2013-06-20 13:55:00
10:15 AM,69.8,48.2,46,30.18,9.0,SSW,4.6,-,N/A,,Clear,200,2013-06-20 14:15:00
10:35 AM,69.8,48.2,46,30.19,10.0,SSW,5.8,-,N/A,,Clear,210,2013-06-20 14:35:00
10:55 AM,71.6,48.2,43,30.18,10.0,Calm,Calm,-,N/A,,Clear,0,2013-06-20 14:55:00
11:15 AM,73.4,48.2,41,30.18,10.0,SSW,6.9,-,N/A,,Clear,200,2013-06-20 15:15:00
11:35 AM,73.4,50.0,44,30.18,10.0,SW,9.2,-,N/A,,Clear,220,2013-06-20 15:35:00
2:55 PM,78.8,53.6,42,30.16,10.0,West,5.8,-,N/A,,Clear,270,2013-06-20 18:55:00
3:15 PM,78.8,53.6,42,30.16,10.0,West,12.7,-,N/A,,Clear,280,2013-06-20 19:15:00
3:35 PM,78.8,53.6,42,30.16,10.0,West,13.8,-,N/A,,Clear,280,2013-06-20 19:35:00
3:55 PM,78.8,53.6,42,30.16,10.0,West,11.5,-,N/A,,Clear,270,2013-06-20 19:55:00
4:15 PM,78.8,53.6,42,30.15,10.0,West,10.4,-,N/A,,Clear,260,2013-06-20 20:15:00
4:35 PM,78.8,53.6,42,30.15,10.0,West,12.7,-,N/A,,Clear,270,2013-06-20 20:35:00
4:55 PM,78.8,53.6,42,30.14,10.0,West,10.4,-,N/A,,Clear,270,2013-06-20 20:55:00
5:15 PM,78.8,53.6,42,30.14,10.0,West,10.4,-,N/A,,Clear,260,2013-06-20 21:15:00
5:35 PM,77.0,53.6,44,30.15,10.0,WSW,11.5,16.1,N/A,,Clear,250,2013-06-20 21:35:00
5:55 PM,77.0,53.6,44,30.14,10.0,West,11.5,-,N/A,,Clear,260,2013-06-20 21:55:00
6:15 PM,77.0,53.6,44,30.13,10.0,West,9.2,-,N/A,,Clear,260,2013-06-20 22:15:00
6:35 PM,77.0,53.6,44,30.13,10.0,WSW,6.9,-,N/A,,Clear,250,2013-06-20 22:35:00
6:55 PM,77.0,53.6,44,30.13,10.0,WSW,5.8,-,N/A,,Clear,250,2013-06-20 22:55:00
7:15 PM,77.0,53.6,44,30.12,10.0,SW,6.9,-,N/A,,Clear,230,2013-06-20 23:15:00
7:35 PM,77.0,53.6,44,30.12,10.0,SSW,6.9,-,N/A,,Clear,210,2013-06-20 23:35:00
7:55 PM,75.2,53.6,47,30.12,10.0,SSW,3.5,-,N/A,,Clear,200,2013-06-20 23:55:00
8:15 PM,75.2,53.6,47,30.12,10.0,SW,4.6,-,N/A,,Clear,220,2013-06-21 00:15:00
8:35 PM,75.2,53.6,47,30.13,10.0,South,3.5,-,N/A,,Clear,180,2013-06-21 00:35:00
8:55 PM,73.4,53.6,50,30.13,10.0,South,3.5,-,N/A,,Clear,180,2013-06-21 00:55:00
9:15 PM,71.6,53.6,53,30.13,10.0,SSE,3.5,-,N/A,,Clear,160,2013-06-21 01:15:00
9:35 PM,69.8,55.4,60,30.14,10.0,Calm,Calm,-,N/A,,Clear,0,2013-06-21 01:35:00
9:55 PM,66.2,55.4,68,30.14,0.5,Calm,Calm,-,N/A,,Unknown,0,2013-06-21 01:55:00
10:15 PM,64.4,55.4,73,30.14,10.0,East,3.5,-,N/A,,Clear,100,2013-06-21 02:15:00
10:35 PM,62.6,55.4,77,30.15,7.0,East,4.6,-,N/A,,Clear,90,2013-06-21 02:35:00
10:55 PM,60.8,55.4,82,30.15,9.0,East,3.5,-,N/A,,Clear,90,2013-06-21 02:55:00
11:15 PM,60.8,55.4,82,30.14,10.0,East,5.8,-,N/A,,Clear,90,2013-06-21 03:15:00
11:35 PM,62.6,55.4,77,30.14,10.0,East,4.6,-,N/A,,Clear,90,2013-06-21 03:35:00
11:55 PM,60.8,55.4,82,30.15,7.0,East,4.6,-,N/A,,Clear,90,2013-06-21 03:55:00